TimePDT,TemperatureF,Dew PointF,Humidity,Sea Level PressureIn,VisibilityMPH,Wind Direction,Wind SpeedMPH,Gust SpeedMPH,PrecipitationIn,Events,Conditions,WindDirDegrees,DateUTC
12:53 AM,51.1,50.0,96,30.12,1.5,Calm,Calm,-,N/A,,Overcast,0,2012-09-25 07:53:00
12:57 AM,51.8,50.0,94,30.11,2.5,Calm,Calm,-,N/A,,Overcast,0,2012-09-25 07:57:00
1:04 AM,50.0,50.0,100,30.11,5.0,SW,3.5,-,N/A,,Overcast,230,2012-09-25 08:04:00
1:15 AM,50.0,48.2,94,30.12,6.0,Calm,Calm,-,N/A,,Overcast,0,2012-09-25 08:15:00
1:53 AM,50.0,50.0,100,30.13,8.0,Calm,Calm,-,N/A,,Overcast,0,2012-09-25 08:53:00
2:12 AM,50.0,48.2,94,30.12,7.0,Calm,Calm,-,N/A,,Mostly Cloudy,0,2012-09-25 09:12:00
2:53 AM,46.9,46.0,97,30.12,9.0,Calm,Calm,-,N/A,,Partly Cloudy,0,2012-09-25 09:53:00
3:53 AM,48.0,46.9,96,30.12,9.0,Calm,Calm,-,N/A,,Scattered Clouds,0,2012-09-25 10:53:00
4:53 AM,48.9,48.9,100,30.13,10.0,Calm,Calm,-,N/A,,Clear,0,2012-09-25 11:53:00
5:53 AM,46.0,46.0,100,30.13,7.0,Calm,Calm,-,N/A,,Partly Cloudy,0,2012-09-25 12:53:00
6:53 AM,44.1,44.1,100,30.14,6.0,Calm,Calm,-,N/A,,Scattered Clouds,0,2012-09-25 13:53:00
7:53 AM,48.9,48.9,100,30.14,10.0,Calm,Calm,-,N/A,,Clear,0,2012-09-25 14:53:00
8:53 AM,54.0,52.0,93,30.15,10.0,Calm,Calm,-,N/A,,Clear,0,2012-09-25 15:53:00
9:53 AM,55.9,52.0,87,30.16,10.0,Calm,Calm,-,N/A,,Mostly Cloudy,0,2012-09-25 16:53:00
10:53 AM,61.0,48.9,64,30.16,10.0,North,8.1,-,N/A,,Overcast,360,2012-09-25 17:53:00
11:14 AM,60.8,48.2,63,30.16,10.0,North,10.4,-,N/A,,Scattered Clouds,10,2012-09-25 18:14:00
12:53 PM,63.0,48.9,60,30.14,10.0,North,6.9,-,N/A,,Clear,10,2012-09-25 19:53:00
1:53 PM,64.9,48.9,56,30.13,10.0,NNE,6.9,-,N/A,,Clear,20,2012-09-25 20:53:00
2:53 PM,64.0,50.0,60,30.12,10.0,East,4.6,-,N/A,,Clear,100,2012-09-25 21:53:00
3:53 PM,62.1,48.9,62,30.12,10.0,SW,5.8,-,N/A,,Clear,230,2012-09-25 22:53:00
4:53 PM,59.0,48.0,67,30.13,10.0,Variable,5.8,-,N/A,,Clear,0,2012-09-25 23:53:00
5:53 PM,57.0,46.9,69,30.13,10.0,SW,5.8,-,N/A,,Clear,230,2012-09-26 00:53:00
6:53 PM,52.0,46.0,80,30.12,10.0,Calm,Calm,-,N/A,,Clear,0,2012-09-26 01:53:00
7:53 PM,48.9,45.0,86,30.13,10.0,Calm,Calm,-,N/A,,Clear,0,2012-09-26 02:53:00
8:53 PM,46.9,45.0,93,30.13,10.0,Calm,Calm,-,N/A,,Clear,0,2012-09-26 03:53:00
10:53 PM,45.0,44.1,97,30.14,6.0,Calm,Calm,-,N/A,,Clear,0,2012-09-26 05:53:00
11:53 PM,46.0,44.1,93,30.14,5.0,Calm,Calm,-,N/A,,Clear,0,2012-09-26 06:53:00